Le nostre stazioni meteo in Italia

Pubblicità
Il mio iltempo24.it
Civitavecchia, Italia (16214): Temperatura & dewpoint: 13.03.2019 19:00:00 - 19.03.2019 19:00:00 (CET)Civitavecchia, Italia (16214): velocità del vento: 13.03.2019 19:00:00 - 19.03.2019 19:00:00 (CET)Civitavecchia, Italia (16214): direzione del vento: 13.03.2019 19:00:00 - 19.03.2019 19:00:00 (CET)Civitavecchia, Italia (16214): reduced air pressure: 13.03.2019 19:00:00 - 19.03.2019 19:00:00 (CET)Civitavecchia, Italia (16214): visibility: 13.03.2019 19:00:00 - 19.03.2019 19:00:00 (CET)Civitavecchia, Italia (16214): ore di luce: 13.03.2019 19:00:00 - 19.03.2019 19:00:00 (CET)
Data & Tempo tt [°C] td [°C] ff [km/h] ff [kn] dd ppp [hPa] vv [km] sd [min]
19.03.2019 19:00:00 - - - - - - - -
19.03.2019 18:00:00 - - - - - - - -
19.03.2019 17:00:00 - - - - - - - -
19.03.2019 16:00:00 13,2 6,4 9 5 SO 1017,3 20 0
19.03.2019 15:00:00 - - - - - - - -
19.03.2019 14:00:00 - - - - - - - -
19.03.2019 13:00:00 13,5 7,6 5 3 NO 1017,7 20 0
19.03.2019 12:00:00 - - - - - - - -
19.03.2019 11:00:00 - - - - - - - -
19.03.2019 10:00:00 11,2 7,2 4 2 E 1017,4 10 0
19.03.2019 09:00:00 - - - - - - - -
19.03.2019 08:00:00 - - - - - - - -
19.03.2019 07:00:00 9,6 6,9 15 8 E 1015,8 10 0
19.03.2019 06:00:00 - - - - - - - -
19.03.2019 05:00:00 - - - - - - - -
19.03.2019 04:00:00 10,9 7,7 9 5 E 1014,8 - 0
19.03.2019 03:00:00 - - - - - - - -
19.03.2019 02:00:00 - - - - - - - -
19.03.2019 01:00:00 11,4 7,6 9 5 E 1015,4 - 0
19.03.2019 00:00:00 - - - - - - - -
18.03.2019 23:00:00 - - - - - - - -
18.03.2019 22:00:00 13,6 7,8 9 5 OSO 1015,3 - 0
18.03.2019 21:00:00 - - - - - - - -
18.03.2019 20:00:00 - - - - - - - -
18.03.2019 19:00:00 13,6 8,0 24 13 O 1013,9 10 6
18.03.2019 18:00:00 - - - - - - - -
18.03.2019 17:00:00 - - - - - - - -
18.03.2019 16:00:00 14,2 9,8 15 8 S 1012,4 4,0 30
18.03.2019 15:00:00 - - - - - - - -
18.03.2019 14:00:00 - - - - - - - -
18.03.2019 13:00:00 13,9 8,4 26 14 S 1014,0 10 60
18.03.2019 12:00:00 - - - - - - - -
18.03.2019 11:00:00 - - - - - - - -
18.03.2019 10:00:00 13,8 10,4 22 12 SSE 1013,9 10 0
18.03.2019 09:00:00 - - - - - - - -
18.03.2019 08:00:00 - - - - - - - -
18.03.2019 07:00:00 13,3 10,0 18 10 S 1013,4 10 0
18.03.2019 06:00:00 - - - - - - - -
18.03.2019 05:00:00 - - - - - - - -
18.03.2019 04:00:00 13,4 10,5 18 10 SSE 1013,4 - 0
18.03.2019 03:00:00 - - - - - - - -
18.03.2019 02:00:00 - - - - - - - -
18.03.2019 01:00:00 12,9 11,2 11 6 SE 1014,4 - 0
18.03.2019 00:00:00 - - - - - - - -
17.03.2019 23:00:00 - - - - - - - -
17.03.2019 22:00:00 13,2 10,8 11 6 ESE 1014,8 - 0
17.03.2019 21:00:00 - - - - - - - -
17.03.2019 20:00:00 - - - - - - - -
17.03.2019 19:00:00 13,5 9,4 9 5 SSE 1015,5 - 18
17.03.2019 18:00:00 - - - - - - - -
17.03.2019 17:00:00 - - - - - - - -
17.03.2019 16:00:00 14,5 11,3 13 7 S 1016,4 - 60
17.03.2019 15:00:00 - - - - - - - -
17.03.2019 14:00:00 - - - - - - - -
17.03.2019 13:00:00 14,7 10,2 13 7 SSE 1018,1 - 0
17.03.2019 12:00:00 - - - - - - - -
17.03.2019 11:00:00 - - - - - - - -
17.03.2019 10:00:00 13,6 9,8 8 4 SE 1019,4 - 0
17.03.2019 09:00:00 - - - - - - - -
17.03.2019 08:00:00 - - - - - - - -
17.03.2019 07:00:00 12,1 10,7 9 5 ESE 1018,6 - 0
17.03.2019 06:00:00 - - - - - - - -
17.03.2019 05:00:00 - - - - - - - -
17.03.2019 04:00:00 12,0 10,7 8 4 E 1018,5 - 0
17.03.2019 03:00:00 - - - - - - - -
17.03.2019 02:00:00 - - - - - - - -
17.03.2019 01:00:00 12,8 9,7 8 4 E 1019,6 - 0
17.03.2019 00:00:00 - - - - - - - -
16.03.2019 23:00:00 - - - - - - - -
16.03.2019 22:00:00 14,0 10,4 5 3 ESE 1020,3 - 0
16.03.2019 21:00:00 - - - - - - - -
16.03.2019 20:00:00 - - - - - - - -
16.03.2019 19:00:00 14,3 10,4 2 1 SSE 1019,7 10 0
16.03.2019 18:00:00 - - - - - - - -
16.03.2019 17:00:00 - - - - - - - -
16.03.2019 16:00:00 15,4 11,2 8 4 SE 1019,3 10 36
16.03.2019 15:00:00 - - - - - - - -
16.03.2019 14:00:00 - - - - - - - -
16.03.2019 13:00:00 14,6 11,0 15 8 SSO 1020,5 10 0
16.03.2019 12:00:00 - - - - - - - -
16.03.2019 11:00:00 - - - - - - - -
16.03.2019 10:00:00 14,2 11,3 21 11 SSO 1019,9 4,0 0
16.03.2019 09:00:00 - - - - - - - -
16.03.2019 08:00:00 - - - - - - - -
16.03.2019 07:00:00 13,1 11,3 16 9 ESE 1017,8 10 0
16.03.2019 06:00:00 - - - - - - - -
16.03.2019 05:00:00 - - - - - - - -
16.03.2019 04:00:00 13,0 11,0 15 8 ESE 1016,7 - 0
16.03.2019 03:00:00 - - - - - - - -
16.03.2019 02:00:00 - - - - - - - -
16.03.2019 01:00:00 13,4 10,8 13 7 ESE 1017,1 - 0
16.03.2019 00:00:00 - - - - - - - -
15.03.2019 23:00:00 - - - - - - - -
15.03.2019 22:00:00 12,7 11,2 13 7 ESE 1016,4 - 0
15.03.2019 21:00:00 - - - - - - - -
15.03.2019 20:00:00 - - - - - - - -
15.03.2019 19:00:00 13,6 11,6 5 3 SE 1015,8 4,0 6
15.03.2019 18:00:00 - - - - - - - -
15.03.2019 17:00:00 - - - - - - - -
15.03.2019 16:00:00 14,7 9,7 9 5 S 1015,1 10 60
15.03.2019 15:00:00 - - - - - - - -
15.03.2019 14:00:00 - - - - - - - -
15.03.2019 13:00:00 14,3 8,4 15 8 SO 1015,7 10 60
15.03.2019 12:00:00 - - - - - - - -
15.03.2019 11:00:00 - - - - - - - -
15.03.2019 10:00:00 13,0 6,1 8 4 SSE 1015,1 10 60
15.03.2019 09:00:00 - - - - - - - -
15.03.2019 08:00:00 - - - - - - - -
15.03.2019 07:00:00 10,1 4,1 4 2 ESE 1013,7 10 0
15.03.2019 06:00:00 - - - - - - - -
15.03.2019 05:00:00 - - - - - - - -
15.03.2019 04:00:00 9,9 4,8 8 4 ESE 1012,0 - 0
15.03.2019 03:00:00 - - - - - - - -
15.03.2019 02:00:00 - - - - - - - -
15.03.2019 01:00:00 11,0 2,4 5 3 SE 1012,1 - 0
15.03.2019 00:00:00 - - - - - - - -
14.03.2019 23:00:00 - - - - - - - -
14.03.2019 22:00:00 11,4 6,7 8 4 N 1013,3 - 0
14.03.2019 21:00:00 - - - - - - - -
14.03.2019 20:00:00 - - - - - - - -
14.03.2019 19:00:00 13,4 7,6 29 16 O 1013,0 20 0
14.03.2019 18:00:00 - - - - - - - -
14.03.2019 17:00:00 - - - - - - - -
14.03.2019 16:00:00 13,7 7,8 39 21 ONO 1013,7 20 60
14.03.2019 15:00:00 - - - - - - - -
14.03.2019 14:00:00 - - - - - - - -
14.03.2019 13:00:00 14,2 4,1 28 15 NO 1015,1 20 60
14.03.2019 12:00:00 - - - - - - - -
14.03.2019 11:00:00 - - - - - - - -
14.03.2019 10:00:00 11,8 2,0 29 16 NNO 1015,3 20 60
14.03.2019 09:00:00 - - - - - - - -
14.03.2019 08:00:00 - - - - - - - -
14.03.2019 07:00:00 8,5 4,1 24 13 NNO 1013,9 20 0
14.03.2019 06:00:00 - - - - - - - -
14.03.2019 05:00:00 - - - - - - - -
14.03.2019 04:00:00 9,3 5,4 24 13 NNO 1012,1 - 0
14.03.2019 03:00:00 - - - - - - - -
14.03.2019 02:00:00 - - - - - - - -
14.03.2019 01:00:00 11,7 5,9 11 6 NNE 1011,1 - 0
14.03.2019 00:00:00 - - - - - - - -
13.03.2019 23:00:00 - - - - - - - -
13.03.2019 22:00:00 12,9 9,1 9 5 N 1010,7 - 0
13.03.2019 21:00:00 - - - - - - - -
13.03.2019 20:00:00 - - - - - - - -
13.03.2019 19:00:00 13,6 7,3 37 20 SO 1011,9 10 6

tt = Temperatura
td = dewpoint
ff = velocità del vento
dd = direzione del vento
ppp = reduced air pressure
vv = visibility
sd = ore di luce

Stazioni seguenti

WeatherPro
AMSI
MeteoEarth